AFL771 URWA-UUEE

Flight info

Callsign AFL771
Flight time 2h 47m
Altitude 31000
Route ZG5A ZG G487 OBATA L988 TUGLA/K0863F320 L736 ARISA/K0863F340 L736 OLOPI OLOPI3F
Aircraft B738/M-SDE2E3FGHIRWXY/LB1

Departure

Time 2026-05-04 15:06
Airport Astrakhan Narimanovo Boris M. Kustodiev International Airport (URWA)

Arrival

Time 2026-05-04 17:53
Airport Sheremetyevo International Airport (UUEE)
Time Latitude Longitude Altitude Speed Heading
2026-05-04 14:33 46.28579 47.99931 -67 ft 0 kts
2026-05-04 14:41 46.28578 47.99931 -72 ft 0 kts
2026-05-04 15:01 46.28581 47.99931 -71 ft 1 kts
2026-05-04 15:01 46.28597 47.99934 -72 ft 3 kts
2026-05-04 15:01 46.28619 47.99911 -70 ft 5 kts 299°
2026-05-04 15:02 46.28628 47.99853 -66 ft 7 kts 274°
2026-05-04 15:02 46.28614 47.99783 -70 ft 8 kts 211°
2026-05-04 15:02 46.28569 47.99752 -72 ft 8 kts 226°
2026-05-04 15:02 46.28566 47.99666 -68 ft 9 kts 274°
2026-05-04 15:03 46.28529 47.99601 -70 ft 9 kts 197°
2026-05-04 15:03 46.28466 47.99587 -69 ft 9 kts 188°
2026-05-04 15:03 46.28423 47.99528 -69 ft 9 kts 257°
2026-05-04 15:03 46.28426 47.99434 -73 ft 9 kts 278°
2026-05-04 15:04 46.28431 47.99343 -76 ft 9 kts 270°
2026-05-04 15:04 46.28438 47.99254 -70 ft 9 kts 283°
2026-05-04 15:04 46.28454 47.99170 -69 ft 9 kts 299°
2026-05-04 15:04 46.28490 47.99103 -73 ft 8 kts 311°
2026-05-04 15:05 46.28489 47.99037 -72 ft 8 kts 193°
2026-05-04 15:05 46.28458 47.99070 -67 ft 0 kts 94°
2026-05-04 15:05 46.28453 47.99123 -74 ft 29 kts 97°
2026-05-04 15:05 46.28397 47.99768 -74 ft 99 kts 97°
2026-05-04 15:06 46.28295 48.01034 -72 ft 156 kts 95°
2026-05-04 15:06 46.28158 48.02711 386 ft 173 kts 95°
2026-05-04 15:06 46.27990 48.04487 1090 ft 182 kts 93°
2026-05-04 15:07 46.27604 48.08176 2459 ft 201 kts 99°
2026-05-04 15:07 46.27252 48.10254 2672 ft 224 kts 101°
2026-05-04 15:07 46.26847 48.12551 2888 ft 245 kts 101°
2026-05-04 15:07 46.26424 48.14984 3394 ft 253 kts 101°
2026-05-04 15:08 46.25995 48.17484 4052 ft 258 kts 101°
2026-05-04 15:08 46.25572 48.19994 4962 ft 258 kts 101°
2026-05-04 15:08 46.25152 48.22517 5807 ft 260 kts 102°
2026-05-04 15:08 46.24732 48.25069 6595 ft 263 kts 102°
2026-05-04 15:09 46.24305 48.27668 7316 ft 267 kts 102°
2026-05-04 15:09 46.23874 48.30307 8048 ft 272 kts 103°
2026-05-04 15:09 46.23442 48.32959 8684 ft 279 kts 103°
2026-05-04 15:10 46.22531 48.38545 10015 ft 291 kts 104°
2026-05-04 15:10 46.22064 48.41408 10687 ft 295 kts 105°
2026-05-04 15:10 46.21049 48.47611 11080 ft 339 kts 104°
2026-05-04 15:11 46.20492 48.51014 11298 ft 357 kts 104°
2026-05-04 15:11 46.19913 48.54540 11846 ft 364 kts 104°
2026-05-04 15:11 46.19364 48.58117 12512 ft 367 kts 98°
2026-05-04 15:11 46.19496 48.61816 13148 ft 374 kts 77°
2026-05-04 15:12 46.20366 48.65382 13826 ft 379 kts 69°
2026-05-04 15:12 46.21385 48.68928 14353 ft 384 kts 68°
2026-05-04 15:12 46.22438 48.72496 14850 ft 390 kts 68°
2026-05-04 15:12 46.23507 48.76129 15401 ft 395 kts 68°
2026-05-04 15:13 46.24575 48.79801 15968 ft 398 kts 69°
2026-05-04 15:13 46.25645 48.83527 16509 ft 403 kts 69°
2026-05-04 15:13 46.26713 48.87285 17031 ft 407 kts 69°
2026-05-04 15:13 46.27789 48.91093 17556 ft 411 kts 69°
2026-05-04 15:14 46.28873 48.94945 18061 ft 416 kts 69°
2026-05-04 15:14 46.29966 48.98835 18556 ft 419 kts 69°
2026-05-04 15:14 46.31066 49.02754 19055 ft 421 kts 69°
2026-05-04 15:14 46.32169 49.06693 19557 ft 424 kts 69°
2026-05-04 15:15 46.33277 49.10656 20043 ft 426 kts 69°
2026-05-04 15:15 46.34393 49.14648 20541 ft 428 kts 69°
2026-05-04 15:15 46.35500 49.18617 21005 ft 431 kts 69°
2026-05-04 15:16 46.37893 49.26630 21921 ft 437 kts 66°
2026-05-04 15:16 46.39183 49.30634 22377 ft 439 kts 66°
2026-05-04 15:16 46.41790 49.38707 23196 ft 445 kts 66°
2026-05-04 15:17 46.43093 49.42795 23550 ft 448 kts 67°
2026-05-04 15:17 46.45699 49.51055 24279 ft 452 kts 67°
2026-05-04 15:17 46.47004 49.55219 24643 ft 453 kts 67°
2026-05-04 15:18 46.48310 49.59394 24984 ft 456 kts 67°
2026-05-04 15:18 46.49619 49.63589 25317 ft 458 kts 68°
2026-05-04 15:18 46.50918 49.67756 25640 ft 460 kts 68°
2026-05-04 15:19 46.53566 49.76269 26188 ft 466 kts 67°
2026-05-04 15:19 46.54902 49.80576 26490 ft 468 kts 68°
2026-05-04 15:19 46.57566 49.89182 27407 ft 464 kts 68°
2026-05-04 15:20 46.58884 49.93447 27884 ft 462 kts 68°
2026-05-04 15:20 46.60195 49.97701 28304 ft 461 kts 68°
2026-05-04 15:20 46.61506 50.01961 28695 ft 461 kts 68°
2026-05-04 15:20 46.62814 50.06218 29117 ft 460 kts 68°
2026-05-04 15:21 46.64116 50.10457 29564 ft 458 kts 68°
2026-05-04 15:21 46.65412 50.14682 29991 ft 457 kts 68°
2026-05-04 15:21 46.67978 50.23074 30651 ft 455 kts 68°
2026-05-04 15:22 46.69263 50.27288 30890 ft 457 kts 68°
2026-05-04 15:22 46.73144 50.40058 30859 ft 455 kts 68°
2026-05-04 15:23 46.75695 50.48482 30875 ft 455 kts 68°
2026-05-04 15:23 46.78245 50.56940 30874 ft 456 kts 69°
2026-05-04 15:24 46.83351 50.73933 30872 ft 459 kts 67°
2026-05-04 15:25 46.85073 50.77861 30853 ft 463 kts 47°
2026-05-04 15:25 46.87567 50.80818 30870 ft 464 kts 30°
2026-05-04 15:25 46.90528 50.82671 30880 ft 464 kts 14°
2026-05-04 15:26 46.96929 50.83175 30882 ft 462 kts 356°
2026-05-04 15:26 47.06581 50.82445 30871 ft 463 kts 356°
2026-05-04 15:27 47.16261 50.81812 30882 ft 464 kts 356°
2026-05-04 15:28 47.25901 50.81262 30885 ft 463 kts 356°
2026-05-04 15:29 47.35564 50.80713 30892 ft 462 kts 356°
2026-05-04 15:30 47.56939 50.79481 30905 ft 460 kts 356°
2026-05-04 15:31 47.66506 50.78926 30920 ft 460 kts 356°
2026-05-04 15:32 47.82519 50.77994 30916 ft 461 kts 355°
2026-05-04 15:34 47.98543 50.77054 30928 ft 461 kts 355°
2026-05-04 15:34 48.08125 50.76489 30931 ft 461 kts 355°
2026-05-04 15:35 48.17738 50.75922 30955 ft 460 kts 354°
2026-05-04 15:36 48.27336 50.75352 30935 ft 459 kts 354°
2026-05-04 15:36 48.33721 50.74972 30947 ft 458 kts 354°
2026-05-04 15:37 48.40089 50.74592 30953 ft 457 kts 354°
2026-05-04 15:37 48.46442 50.74212 30954 ft 456 kts 354°
2026-05-04 15:38 48.52775 50.73832 30957 ft 455 kts 353°
2026-05-04 15:38 48.59065 50.73453 30951 ft 455 kts 353°
2026-05-04 15:39 48.65384 50.73072 30959 ft 454 kts 353°
2026-05-04 15:40 48.74853 50.72499 30967 ft 454 kts 353°
2026-05-04 15:40 48.81173 50.72116 30961 ft 454 kts 353°
2026-05-04 15:41 48.87492 50.71732 30974 ft 455 kts 353°
2026-05-04 15:41 48.93821 50.71346 30973 ft 455 kts 353°
2026-05-04 15:42 49.00149 50.70959 30986 ft 455 kts 352°
2026-05-04 15:42 49.06442 50.70573 30975 ft 455 kts 352°
2026-05-04 15:43 49.12772 50.70182 30962 ft 455 kts 352°
2026-05-04 15:43 49.19109 50.69789 30971 ft 455 kts 352°
2026-05-04 15:44 49.25432 50.69396 30977 ft 455 kts 352°
2026-05-04 15:44 49.31758 50.69001 30975 ft 455 kts 351°
2026-05-04 15:45 49.38090 50.68604 30969 ft 455 kts 351°
2026-05-04 15:45 49.44371 50.68211 30970 ft 455 kts 351°
2026-05-04 15:46 49.50700 50.67813 30966 ft 455 kts 351°
2026-05-04 15:46 49.57028 50.67414 30967 ft 455 kts 351°
2026-05-04 15:47 49.63347 50.67015 30971 ft 455 kts 351°
2026-05-04 15:47 49.69675 50.66614 30967 ft 455 kts 351°
2026-05-04 15:48 49.76003 50.66212 30969 ft 455 kts 352°
2026-05-04 15:48 49.85499 50.65606 30975 ft 456 kts 351°
2026-05-04 15:49 49.91804 50.65203 30978 ft 456 kts 351°
2026-05-04 15:49 49.98151 50.64797 30969 ft 456 kts 351°
2026-05-04 15:50 50.04509 50.64389 30969 ft 456 kts 351°
2026-05-04 15:50 50.10855 50.63981 30992 ft 456 kts 350°
2026-05-04 15:51 50.17163 50.63573 30976 ft 456 kts 350°
2026-05-04 15:51 50.23507 50.63162 30965 ft 456 kts 350°
2026-05-04 15:52 50.29845 50.62751 30969 ft 455 kts 350°
2026-05-04 15:52 50.36181 50.62339 30964 ft 455 kts 350°
2026-05-04 15:53 50.42502 50.61926 30975 ft 455 kts 350°
2026-05-04 15:53 50.48828 50.61511 30967 ft 454 kts 350°
2026-05-04 15:54 50.55140 50.61097 30968 ft 453 kts 350°
2026-05-04 15:54 50.61438 50.60683 30973 ft 453 kts 350°
2026-05-04 15:55 50.67736 50.60267 31015 ft 452 kts 351°
2026-05-04 15:55 50.73985 50.59853 30973 ft 451 kts 352°
2026-05-04 15:56 50.80251 50.59438 30963 ft 449 kts 352°
2026-05-04 15:56 50.86492 50.59024 30965 ft 447 kts 351°
2026-05-04 15:57 50.92701 50.58610 30964 ft 445 kts 351°
2026-05-04 15:57 50.98891 50.58198 30977 ft 443 kts 354°
2026-05-04 15:58 51.05029 50.57785 30977 ft 440 kts 354°
2026-05-04 15:58 51.11088 50.57375 30962 ft 437 kts 354°
2026-05-04 15:59 51.17138 50.56967 30964 ft 434 kts 354°
2026-05-04 15:59 51.23171 50.56558 30979 ft 434 kts 354°
2026-05-04 16:00 51.29205 50.56148 30974 ft 434 kts 355°
2026-05-04 16:00 51.35241 50.55739 30968 ft 434 kts 355°
2026-05-04 16:01 51.41280 50.55328 30966 ft 434 kts 355°
2026-05-04 16:01 51.47120 50.53494 30970 ft 426 kts 328°
2026-05-04 16:02 51.49486 50.50691 30968 ft 423 kts 314°
2026-05-04 16:02 51.51299 50.47088 30962 ft 420 kts 299°
2026-05-04 16:03 51.54991 50.34333 30953 ft 420 kts 294°
2026-05-04 16:03 51.57389 50.25744 30959 ft 421 kts 294°
2026-05-04 16:04 51.59827 50.17172 30967 ft 421 kts 294°
2026-05-04 16:04 51.63498 50.04290 30968 ft 422 kts 294°
2026-05-04 16:05 51.65937 49.95692 30969 ft 422 kts 294°
2026-05-04 16:06 51.69582 49.82767 30966 ft 422 kts 294°
2026-05-04 16:07 51.74395 49.65592 30969 ft 420 kts 294°
2026-05-04 16:08 51.79183 49.48380 30971 ft 419 kts 294°
2026-05-04 16:09 51.85110 49.26897 30972 ft 419 kts 294°
2026-05-04 16:10 51.89835 49.09626 30960 ft 420 kts 294°
2026-05-04 16:11 51.94528 48.92344 30975 ft 420 kts 294°
2026-05-04 16:12 52.01540 48.66171 30976 ft 422 kts 294°
2026-05-04 16:13 52.06161 48.48686 30967 ft 422 kts 294°
2026-05-04 16:14 52.10770 48.31122 30966 ft 422 kts 294°
2026-05-04 16:16 52.16586 48.09257 30967 ft 421 kts 295°
2026-05-04 16:17 52.22173 47.88939 30965 ft 420 kts 295°
2026-05-04 16:18 52.26882 47.71567 30975 ft 420 kts 295°
2026-05-04 16:19 52.32763 47.49693 30977 ft 421 kts 295°
2026-05-04 16:20 52.38624 47.27777 30972 ft 421 kts 295°
2026-05-04 16:22 52.44454 47.05778 30975 ft 420 kts 295°
2026-05-04 16:23 52.51366 46.79406 30968 ft 419 kts 295°
2026-05-04 16:25 52.58156 46.53026 30978 ft 418 kts 295°
2026-05-04 16:26 52.65731 46.21907 30970 ft 420 kts 292°
2026-05-04 16:28 52.70745 45.99165 30970 ft 423 kts 292°
2026-05-04 16:29 52.77773 45.67215 30966 ft 423 kts 292°
2026-05-04 16:31 52.82740 45.44311 30969 ft 422 kts 292°
2026-05-04 16:32 52.88580 45.16885 30968 ft 422 kts 292°
2026-05-04 16:33 52.92451 44.98518 30967 ft 423 kts 292°
2026-05-04 16:34 52.95489 44.84824 30955 ft 424 kts 293°
2026-05-04 16:35 53.01692 44.57057 30968 ft 430 kts 293°
2026-05-04 16:36 53.04781 44.43029 30966 ft 431 kts 293°
2026-05-04 16:37 53.07853 44.28993 30964 ft 431 kts 293°
2026-05-04 16:38 53.11911 44.10312 30966 ft 429 kts 292°
2026-05-04 16:39 53.16937 43.86942 30961 ft 427 kts 292°
2026-05-04 16:40 53.20914 43.68259 30957 ft 427 kts 292°
2026-05-04 16:41 53.25837 43.44884 30959 ft 428 kts 292°
2026-05-04 16:43 53.30729 43.21388 30960 ft 428 kts 291°
2026-05-04 16:43 53.33639 43.07277 30952 ft 429 kts 291°
2026-05-04 16:45 53.39429 42.78899 30942 ft 429 kts 291°
2026-05-04 16:46 53.44192 42.55255 30946 ft 428 kts 291°
2026-05-04 16:47 53.47771 42.36217 30947 ft 429 kts 288°
2026-05-04 16:48 53.51098 42.16898 30946 ft 431 kts 288°
2026-05-04 16:49 53.54444 41.97545 30936 ft 433 kts 288°
2026-05-04 16:50 53.57782 41.78048 30943 ft 434 kts 288°
2026-05-04 16:51 53.60266 41.63397 30925 ft 433 kts 287°
2026-05-04 16:52 53.63340 41.42488 30953 ft 433 kts 277°
2026-05-04 16:53 53.63888 41.27146 30931 ft 445 kts 274°
2026-05-04 16:53 53.65127 41.12252 30781 ft 460 kts 291°
2026-05-04 16:54 53.66436 41.07302 30815 ft 462 kts 299°
2026-05-04 16:55 53.73701 40.89302 30932 ft 469 kts 299°
2026-05-04 16:55 53.76489 40.79309 30918 ft 471 kts 294°
2026-05-04 16:56 53.82897 40.53877 30921 ft 469 kts 294°
2026-05-04 16:57 53.86769 40.38690 30921 ft 467 kts 294°
2026-05-04 16:58 53.91862 40.18523 30918 ft 466 kts 294°
2026-05-04 17:00 53.99469 39.88063 30546 ft 469 kts 293°
2026-05-04 17:00 54.03251 39.72762 29950 ft 470 kts 293°
2026-05-04 17:01 54.05781 39.62464 29472 ft 471 kts 293°
2026-05-04 17:01 54.08298 39.52173 28994 ft 471 kts 293°
2026-05-04 17:02 54.10811 39.41849 28530 ft 472 kts 292°
2026-05-04 17:02 54.13285 39.31638 28048 ft 458 kts 292°
2026-05-04 17:03 54.14480 39.26686 27811 ft 445 kts 292°
2026-05-04 17:03 54.15639 39.21876 27609 ft 432 kts 292°
2026-05-04 17:03 54.17853 39.12653 27207 ft 409 kts 292°
2026-05-04 17:04 54.19623 39.05256 26972 ft 407 kts 292°
2026-05-04 17:04 54.21751 38.96331 26911 ft 404 kts 292°
2026-05-04 17:05 54.24921 38.88591 26919 ft 404 kts 322°
2026-05-04 17:05 54.29870 38.83995 26906 ft 406 kts 334°
2026-05-04 17:06 54.34983 38.79806 26839 ft 407 kts 334°
2026-05-04 17:06 54.37531 38.77676 26702 ft 406 kts 333°
2026-05-04 17:07 54.42597 38.73366 26410 ft 407 kts 333°
2026-05-04 17:07 54.44272 38.71931 26293 ft 404 kts 333°
2026-05-04 17:07 54.47557 38.69112 26037 ft 393 kts 332°
2026-05-04 17:07 54.49990 38.67020 25934 ft 390 kts 332°
2026-05-04 17:08 54.52421 38.64924 25905 ft 389 kts 332°
2026-05-04 17:08 54.57272 38.60729 25904 ft 390 kts 332°
2026-05-04 17:08 54.59698 38.58626 25899 ft 390 kts 332°
2026-05-04 17:09 54.62121 38.56524 25893 ft 390 kts 332°
2026-05-04 17:09 54.64552 38.54412 25905 ft 390 kts 332°
2026-05-04 17:09 54.66966 38.52312 25893 ft 389 kts 332°
2026-05-04 17:10 54.71808 38.48093 25895 ft 389 kts 332°
2026-05-04 17:10 54.79044 38.41810 25894 ft 389 kts 332°
2026-05-04 17:11 54.81464 38.39711 25895 ft 389 kts 332°
2026-05-04 17:11 54.83884 38.37605 25820 ft 390 kts 331°
2026-05-04 17:11 54.87957 38.31648 25425 ft 382 kts 312°
2026-05-04 17:12 54.89781 38.28294 25224 ft 381 kts 312°
2026-05-04 17:12 54.93464 38.21664 24841 ft 380 kts 313°
2026-05-04 17:13 54.98995 38.11781 24161 ft 379 kts 312°
2026-05-04 17:14 55.04455 38.01945 23100 ft 372 kts 312°
2026-05-04 17:14 55.06246 37.98710 22693 ft 370 kts 312°
2026-05-04 17:14 55.09796 37.92288 21889 ft 364 kts 312°
2026-05-04 17:15 55.11544 37.89119 21498 ft 360 kts 312°
2026-05-04 17:15 55.14988 37.82867 20727 ft 353 kts 312°
2026-05-04 17:16 55.18573 37.77102 19982 ft 349 kts 322°
2026-05-04 17:16 55.24237 37.70161 19875 ft 320 kts 321°
2026-05-04 17:17 55.25812 37.67459 19874 ft 318 kts 300°
2026-05-04 17:17 55.26354 37.56159 19888 ft 320 kts 259°
2026-05-04 17:18 55.25880 37.52347 19886 ft 320 kts 258°
2026-05-04 17:18 55.24959 37.44717 19882 ft 319 kts 259°
2026-05-04 17:19 55.24297 37.37058 19869 ft 318 kts 277°
2026-05-04 17:19 55.26262 37.30294 19882 ft 321 kts 317°
2026-05-04 17:20 55.30466 37.27458 19405 ft 338 kts 359°
2026-05-04 17:20 55.35083 37.29046 18806 ft 341 kts 11°
2026-05-04 17:20 55.37383 37.30056 18500 ft 339 kts 11°
2026-05-04 17:21 55.41926 37.32013 17835 ft 333 kts 10°
2026-05-04 17:21 55.46406 37.33880 17145 ft 329 kts 10°
2026-05-04 17:22 55.48622 37.34797 16915 ft 324 kts 10°
2026-05-04 17:22 55.50797 37.35683 16880 ft 318 kts
2026-05-04 17:23 55.57431 37.35855 16865 ft 321 kts 355°
2026-05-04 17:23 55.59658 37.35756 16849 ft 319 kts 355°
2026-05-04 17:23 55.64098 37.35641 16826 ft 319 kts 356°
2026-05-04 17:24 55.66296 37.35609 16855 ft 320 kts 356°
2026-05-04 17:24 55.72977 37.35534 16847 ft 320 kts 355°
2026-05-04 17:25 55.75214 37.35351 16584 ft 322 kts 353°
2026-05-04 17:25 55.79756 37.34805 15559 ft 331 kts 353°
2026-05-04 17:26 55.84406 37.34289 14532 ft 337 kts 353°
2026-05-04 17:26 55.91439 37.33515 12926 ft 336 kts 353°
2026-05-04 17:27 55.96196 37.32985 10947 ft 347 kts 352°
2026-05-04 17:27 56.00460 37.30083 10022 ft 315 kts 324°
2026-05-04 17:28 56.04010 37.25943 9234 ft 295 kts 324°
2026-05-04 17:29 56.08918 37.20311 9002 ft 276 kts 324°
2026-05-04 17:29 56.13222 37.13631 8989 ft 273 kts 310°
2026-05-04 17:30 56.17214 37.06321 8207 ft 269 kts 311°
2026-05-04 17:31 56.19977 37.01854 7982 ft 260 kts 321°
2026-05-04 17:31 56.24151 36.96636 7968 ft 240 kts 320°
2026-05-04 17:32 56.26856 36.93166 7978 ft 238 kts 320°
2026-05-04 17:33 56.31046 36.88449 7954 ft 245 kts 348°
2026-05-04 17:33 56.32745 36.88800 7969 ft 254 kts 19°
2026-05-04 17:34 56.36826 36.95195 7970 ft 264 kts 41°
2026-05-04 17:34 56.38130 36.97536 7969 ft 265 kts 41°
2026-05-04 17:35 56.41837 37.04881 7964 ft 268 kts 60°
2026-05-04 17:35 56.43527 37.10900 7966 ft 269 kts 60°
2026-05-04 17:35 56.44391 37.13894 7963 ft 269 kts 60°
2026-05-04 17:36 56.45266 37.16896 7976 ft 272 kts 59°
2026-05-04 17:36 56.46139 37.19948 7968 ft 273 kts 65°
2026-05-04 17:36 56.46458 37.23290 7978 ft 269 kts 92°
2026-05-04 17:36 56.46361 37.26661 7966 ft 269 kts 93°
2026-05-04 17:37 56.46258 37.30048 7974 ft 270 kts 93°
2026-05-04 17:37 56.46159 37.33444 7971 ft 271 kts 93°
2026-05-04 17:37 56.46064 37.36848 7970 ft 271 kts 93°
2026-05-04 17:37 56.45967 37.40216 7981 ft 272 kts 95°
2026-05-04 17:38 56.45402 37.43430 7973 ft 267 kts 125°
2026-05-04 17:38 56.44356 37.46190 7982 ft 267 kts 127°
2026-05-04 17:38 56.43287 37.48957 7982 ft 268 kts 127°
2026-05-04 17:38 56.42221 37.51721 7980 ft 269 kts 129°
2026-05-04 17:39 56.39159 37.54624 7974 ft 248 kts 187°
2026-05-04 17:39 56.37523 37.53919 7986 ft 240 kts 209°
2026-05-04 17:39 56.36179 37.52230 7976 ft 234 kts 228°
2026-05-04 17:40 56.35088 37.50066 7978 ft 233 kts 232°
2026-05-04 17:40 56.34037 37.47818 7974 ft 234 kts 232°
2026-05-04 17:40 56.32990 37.45567 7972 ft 234 kts 232°
2026-05-04 17:40 56.31937 37.43318 7978 ft 235 kts 232°
2026-05-04 17:41 56.30882 37.41078 7973 ft 235 kts 232°
2026-05-04 17:41 56.29820 37.38839 7972 ft 234 kts 232°
2026-05-04 17:41 56.28772 37.36641 7967 ft 234 kts 232°
2026-05-04 17:41 56.27713 37.34414 7972 ft 234 kts 232°
2026-05-04 17:42 56.26655 37.32198 7973 ft 233 kts 232°
2026-05-04 17:42 56.25373 37.30386 7890 ft 242 kts 206°
2026-05-04 17:42 56.23664 37.29992 7647 ft 256 kts 177°
2026-05-04 17:42 56.21912 37.30671 7419 ft 258 kts 169°
2026-05-04 17:43 56.20189 37.31559 7173 ft 256 kts 168°
2026-05-04 17:43 56.18520 37.32625 7012 ft 256 kts 153°
2026-05-04 17:43 56.17265 37.34876 7000 ft 258 kts 121°
2026-05-04 17:43 56.16775 37.37970 6990 ft 262 kts 90°
2026-05-04 17:44 56.17030 37.41181 6964 ft 268 kts 75°
2026-05-04 17:44 56.17536 37.44446 6709 ft 274 kts 72°
2026-05-04 17:44 56.18065 37.47732 6468 ft 273 kts 73°
2026-05-04 17:44 56.18575 37.51001 6215 ft 271 kts 73°
2026-05-04 17:45 56.19071 37.54256 5966 ft 269 kts 74°
2026-05-04 17:45 56.19333 37.57556 5676 ft 268 kts 98°
2026-05-04 17:45 56.18678 37.60598 5444 ft 260 kts 128°
2026-05-04 17:45 56.17499 37.63008 5215 ft 254 kts 138°
2026-05-04 17:46 56.16264 37.65216 4948 ft 254 kts 139°
2026-05-04 17:46 56.15016 37.67455 4709 ft 253 kts 139°
2026-05-04 17:46 56.13779 37.69698 4456 ft 252 kts 138°
2026-05-04 17:46 56.12555 37.71928 4205 ft 250 kts 138°
2026-05-04 17:47 56.11345 37.74138 4030 ft 245 kts 138°
2026-05-04 17:47 56.10143 37.76185 3978 ft 230 kts 151°
2026-05-04 17:47 56.08739 37.77003 4004 ft 201 kts 183°
2026-05-04 17:47 56.07419 37.76790 3983 ft 184 kts 200°
2026-05-04 17:48 56.06203 37.76082 3992 ft 184 kts 202°
2026-05-04 17:48 56.04986 37.75381 4003 ft 183 kts 202°
2026-05-04 17:48 56.03777 37.74687 3991 ft 183 kts 202°
2026-05-04 17:48 56.02569 37.73909 3806 ft 185 kts 213°
2026-05-04 17:49 56.01750 37.72248 3574 ft 178 kts 248°
2026-05-04 17:49 56.01408 37.70142 3368 ft 176 kts 254°
2026-05-04 17:49 56.01091 37.68036 3143 ft 175 kts 254°
2026-05-04 17:49 56.00795 37.65955 3015 ft 171 kts 255°
2026-05-04 17:50 56.00495 37.63862 2807 ft 174 kts 254°
2026-05-04 17:50 56.00195 37.61847 2569 ft 162 kts 253°
2026-05-04 17:50 55.99915 37.59996 2403 ft 149 kts 253°
2026-05-04 17:50 55.99651 37.58238 2199 ft 147 kts 252°
2026-05-04 17:51 55.99386 37.56482 2016 ft 146 kts 252°
2026-05-04 17:51 55.99123 37.54735 1821 ft 146 kts 252°
2026-05-04 17:51 55.98860 37.52983 1624 ft 146 kts 252°
2026-05-04 17:51 55.98591 37.51205 1429 ft 150 kts 252°
2026-05-04 17:52 55.98322 37.49405 1245 ft 150 kts 254°
2026-05-04 17:52 55.98050 37.47580 1019 ft 152 kts 254°
2026-05-04 17:52 55.97869 37.46374 894 ft 152 kts 253°
2026-05-04 17:52 55.97598 37.44547 700 ft 152 kts 254°
2026-05-04 17:53 55.97337 37.42810 642 ft 134 kts 256°
2026-05-04 17:53 55.97138 37.41481 640 ft 73 kts 254°
2026-05-04 17:53 55.97023 37.40679 640 ft 63 kts 256°
2026-05-04 17:53 55.96944 37.40134 640 ft 25 kts 271°
2026-05-04 17:54 55.97044 37.40016 638 ft 3 kts 346°
2026-05-04 17:54 55.97044 37.40015 638 ft 0 kts 346°
2026-05-04 17:55 55.97049 37.40014 638 ft 2 kts 346°
2026-05-04 17:55 55.97081 37.39998 638 ft 8 kts 345°
2026-05-04 17:55 55.97151 37.39965 638 ft 13 kts 345°
2026-05-04 17:55 55.97256 37.39917 643 ft 16 kts 342°
2026-05-04 17:56 55.97340 37.39916 638 ft 11 kts 41°
2026-05-04 17:56 55.97364 37.40048 641 ft 11 kts 76°
2026-05-04 17:56 55.97385 37.40184 640 ft 12 kts 73°
2026-05-04 17:56 55.97409 37.40336 638 ft 13 kts 81°
2026-05-04 17:57 55.97433 37.40495 646 ft 13 kts 73°
2026-05-04 17:57 55.97456 37.40648 638 ft 13 kts 74°
2026-05-04 17:57 55.97479 37.40799 645 ft 12 kts 75°
2026-05-04 17:57 55.97499 37.40946 641 ft 12 kts 75°
2026-05-04 17:58 55.97521 37.41088 643 ft 12 kts 69°
2026-05-04 17:58 55.97578 37.41147 641 ft 9 kts 346°
2026-05-04 17:58 55.97628 37.41204 642 ft 9 kts 66°
2026-05-04 17:58 55.97645 37.41317 638 ft 10 kts 74°
2026-05-04 17:59 55.97665 37.41437 642 ft 10 kts 70°
2026-05-04 17:59 55.97723 37.41461 640 ft 9 kts 348°
2026-05-04 17:59 55.97836 37.41402 638 ft 6 kts 340°
2026-05-04 18:00 55.97879 37.41388 643 ft 6 kts 349°
2026-05-04 18:00 55.97914 37.41353 638 ft 6 kts 297°
2026-05-04 18:00 55.97911 37.41283 641 ft 3 kts 258°
2026-05-04 18:00 55.97910 37.41279 642 ft 0 kts 257°
2026-05-04 18:01 55.97910 37.41274 640 ft 2 kts 255°
2026-05-04 18:01 55.97905 37.41245 645 ft 0 kts 255°